Tracking 18852 objects as of 24-Nov-2017
HD Live streaming from Space Station
objects crossing your sky now

ARABSAT 1DR (TELSTAR 3A)

Track ARABSAT 1DR (TELSTAR 3A) now!
ARABSAT 1DR (TELSTAR 3A) is classified as:


NORAD ID: 14234
Int'l Code: 1983-077A
Perigee: 35,919.5 km
Apogee: 36,090.2 km
Inclination: 15.4 °
Period: 1,446.9 minutes
Semi major axis: 42375 km
RCS: 2.5151 m2 (large)
Launch date: July 28, 1983
Source: Arab Satellite Communications Organization (AB)
Launch site: AIR FORCE EASTERN TEST RANGE (AFETR)
aabbcc
Your satellite tracking list
Your tracking list is empty




NASA's NSSDC Master Catalog

Two Line Element Set (TLE):
1 14234U 83077A   17325.53731387 -.00000278 +00000-0 +00000-0 0  9992
2 14234 015.3785 008.6516 0020144 091.3963 268.8254 00.99523511015199
Source of the keplerian elements: AFSPC